DW2843 Weather Reports


Display with metric or nautical units.
time (UTC)temp
F
wind
direction
speed
MPH
gust
MPH
rain 1hr
in
rain 24hr
in
rain mn
in
humidity
%
barometer
mb
20260507221004 47 0 0.0 0.0 0.00 0.00 0.00 88 1017.6
20260507215004 48 0 0.0 0.0 0.00 0.00 0.00 87 1017.5
20260507214003 48 0 0.0 0.0 0.00 0.00 0.00 87 1017.5
20260507213004 48 0 0.0 0.0 0.00 0.00 0.00 87 1017.6
20260507212004 49 0 0.0 0.0 0.00 0.00 0.00 86 1017.7
20260507211005 49 0 0.0 0.0 0.00 0.00 0.00 86 1017.6
20260507210003 49 0 0.0 0.0 0.00 0.00 0.00 85 1017.6
20260507205004 49 0 0.0 0.0 0.00 0.00 0.00 85 1017.6
20260507204005 50 0 0.0 0.0 0.00 0.00 0.00 85 1017.5
20260507202005 50 0 0.0 3.0 0.00 0.00 0.00 84 1017.2
20260507201004 50 0 0.0 4.0 0.00 0.00 0.00 84 1017.1
20260507195003 51 140 1.0 9.0 0.00 0.00 0.00 83 1016.7
20260507194003 51 130 3.0 9.0 0.00 0.00 0.00 82 1016.7
20260507193004 51 132 1.0 6.0 0.00 0.00 0.00 81 1016.7
20260507192004 51 117 1.0 4.0 0.00 0.00 0.00 80 1016.7
20260507191004 51 132 1.0 6.0 0.00 0.00 0.00 80 1016.7
20260507190005 52 121 3.0 9.0 0.00 0.00 0.00 79 1016.7
20260507185004 52 0 0.0 6.0 0.00 0.00 0.00 79 1016.7
20260507184005 52 132 3.0 9.0 0.00 0.00 0.00 78 1016.6
20260507183004 53 127 3.0 9.0 0.00 0.00 0.00 77 1016.5
20260507182005 53 133 3.0 13.0 0.00 0.00 0.00 77 1016.4
20260507181004 53 137 1.0 9.0 0.00 0.00 0.00 77 1016.4
20260507180004 54 129 1.0 6.0 0.00 0.00 0.00 76 1016.2
20260507175003 54 118 3.0 12.0 0.00 0.00 0.00 75 1016.1
20260507174004 55 121 3.0 12.0 0.00 0.00 0.00 74 1016.2
20260507172004 55 122 4.0 12.0 0.00 0.00 0.00 73 1016.3
20260507170004 56 132 4.0 9.0 0.00 0.00 0.00 71 1016.1
20260507164005 57 134 3.0 10.0 0.00 0.00 0.00 70 1016.2
20260507163003 57 136 3.0 9.0 0.00 0.00 0.00 69 1016.2
20260507162004 57 135 4.0 12.0 0.00 0.00 0.00 69 1016.2
20260507161004 57 145 3.0 9.0 0.00 0.00 0.00 69 1016.2
20260507160005 58 127 3.0 12.0 0.00 0.00 0.00 68 1016.2
20260507155006 58 140 3.0 9.0 0.00 0.00 0.00 67 1016.2
20260507154005 58 145 3.0 10.0 0.00 0.00 0.00 67 1016.1
20260507153004 58 122 3.0 10.0 0.00 0.00 0.00 68 1016.0
20260507152003 58 153 3.0 12.0 0.00 0.00 0.00 69 1016.2
20260507151004 58 123 3.0 12.0 0.00 0.00 0.00 67 1016.1
20260507150004 58 144 3.0 10.0 0.00 0.00 0.00 66 1016.1
20260507145003 58 147 4.0 12.0 0.00 0.00 0.00 67 1016.3
20260507144003 58 140 3.0 10.0 0.00 0.00 0.00 68 1016.3
20260507143004 58 153 4.0 13.0 0.00 0.00 0.00 67 1016.3
20260507142004 59 156 4.0 12.0 0.00 0.00 0.00 66 1016.4
20260507141004 59 157 3.0 12.0 0.00 0.00 0.00 66 1016.5
20260507140003 59 123 1.0 9.0 0.00 0.00 0.00 65 1016.4
20260507134003 60 133 1.0 6.0 0.00 0.00 0.00 64 1016.4
20260507132004 60 141 1.0 4.0 0.00 0.00 0.00 60 1016.5
20260507131004 61 115 1.0 4.0 0.00 0.00 0.00 61 1016.5
20260507130004 62 84 1.0 9.0 0.00 0.00 0.00 58 1016.5
20260507125005 61 112 1.0 4.0 0.00 0.00 0.00 62 1016.5
20260507124004 60 122 1.0 4.0 0.00 0.00 0.00 61 1016.5
20260507123005 61 136 3.0 9.0 0.00 0.00 0.00 58 1016.5
20260507122005 62 146 3.0 9.0 0.00 0.00 0.00 61 1016.6
20260507121004 62 124 3.0 7.0 0.00 0.00 0.00 64 1016.7
20260507120004 60 147 3.0 7.0 0.00 0.00 0.00 64 1016.7
20260507115003 58 135 3.0 9.0 0.00 0.00 0.00 68 1016.8
20260507114003 56 115 3.0 9.0 0.00 0.00 0.00 68 1016.8
20260507113004 57 70 1.0 9.0 0.00 0.00 0.00 67 1016.9
20260507112004 57 108 1.0 6.0 0.00 0.00 0.00 68 1016.9
20260507111004 58 132 1.0 9.0 0.00 0.00 0.00 66 1017.0
20260507110004 58 100 1.0 4.0 0.00 0.00 0.00 70 1017.1
20260507105004 57 123 1.0 7.0 0.00 0.00 0.00 69 1017.1
20260507104006 56 120 1.0 4.0 0.00 0.00 0.00 70 1017.0
20260507103006 57 128 1.0 6.0 0.00 0.00 0.00 68 1017.1
20260507102007 58 131 1.0 6.0 0.00 0.01 0.00 67 1017.1
20260507101004 58 127 1.0 7.0 0.00 0.01 0.00 66 1017.1
20260507100006 58 127 1.0 6.0 0.00 0.01 0.00 69 1017.0
20260507095005 57 139 3.0 12.0 0.00 0.01 0.00 70 1016.9
20260507094005 56 128 1.0 9.0 0.00 0.01 0.00 72 1017.0
20260507093004 55 66 1.0 4.0 0.00 0.01 0.00 72 1017.0
20260507092005 54 46 1.0 6.0 0.00 0.01 0.00 72 1016.9
20260507091005 54 0 0.0 6.0 0.00 0.02 0.00 73 1016.9
20260507090011 54 84 1.0 4.0 0.00 0.02 0.00 73 1016.9
20260507085005 54 122 1.0 4.0 0.00 0.02 0.00 77 1017.0
20260507084005 52 80 1.0 4.0 0.00 0.02 0.00 78 1016.9
20260507083005 52 76 1.0 4.0 0.00 0.02 0.00 77 1016.9
20260507080005 52 0 0.0 1.0 0.00 0.02 0.00 76 1016.7
20260507075004 52 117 1.0 4.0 0.00 0.02 0.00 77 1016.7
20260507074004 52 69 1.0 4.0 0.00 0.02 0.00 77 1016.6
20260507073004 52 135 1.0 6.0 0.00 0.02 0.00 79 1016.6
20260507072005 51 138 1.0 6.0 0.00 0.02 0.00 82 1016.5
20260507065004 47 0 0.0 4.0 0.00 0.02 0.00 89 1016.5
20260507064005 47 0 0.0 4.0 0.00 0.02 0.00 90 1016.5
20260507063005 46 0 0.0 4.0 0.00 0.02 0.00 91 1016.4
20260507062005 46 0 0.0 4.0 0.00 0.02 0.00 91 1016.4
20260507061005 46 0 0.0 3.0 0.00 0.02 0.00 92 1016.4
20260507060006 45 0 0.0 1.0 0.00 0.02 0.00 92 1016.2
20260507055005 45 0 0.0 1.0 0.00 0.02 0.00 92 1016.3
20260507054005 45 0 0.0 3.0 0.00 0.02 0.00 92 1016.1
20260507053006 45 0 0.0 1.0 0.00 0.02 0.00 92 1016.0
20260507052004 44 0 0.0 3.0 0.00 0.02 0.00 92 1016.0
20260507051004 44 0 0.0 3.0 0.00 0.02 0.00 92 1016.0
20260507050005 44 0 0.0 0.0 0.00 0.02 0.00 92 1015.9
20260507045004 44 0 0.0 0.0 0.00 0.02 0.00 92 1015.8
20260507043004 44 0 0.0 0.0 0.00 0.02 0.00 92 1015.7
20260507042005 44 0 0.0 0.0 0.00 0.02 0.00 92 1015.7
20260507041004 44 0 0.0 0.0 0.00 0.02 0.00 92 1015.7
20260507040005 44 0 0.0 0.0 0.00 0.02 0.00 92 1015.6
20260507033004 45 0 0.0 0.0 0.00 0.02 0.00 92 1015.6
20260507032005 45 0 0.0 0.0 0.00 0.02 0.00 92 1015.6
20260507031004 45 0 0.0 1.0 0.00 0.02 0.00 92 1015.6
20260507030006 45 0 0.0 0.0 0.00 0.02 0.00 92 1015.6
20260507025005 45 0 0.0 0.0 0.00 0.02 0.00 92 1015.5
20260507024004 45 0 0.0 1.0 0.00 0.02 0.00 92 1015.5
20260507023006 45 0 0.0 1.0 0.00 0.02 0.00 92 1015.6
20260507022005 45 0 0.0 0.0 0.00 0.02 0.00 92 1015.5
20260507021005 45 0 0.0 0.0 0.00 0.02 0.00 92 1015.5
20260507020007 45 0 0.0 0.0 0.00 0.02 0.00 91 1015.6
20260507015005 45 0 0.0 0.0 0.00 0.02 0.00 91 1015.4
20260507014005 45 0 0.0 0.0 0.00 0.02 0.00 91 1015.4
20260507012006 45 0 0.0 0.0 0.00 0.02 0.00 91 1015.4
20260507010005 46 0 0.0 1.0 0.00 0.02 0.00 91 1015.4
20260507005005 46 0 0.0 1.0 0.00 0.02 0.00 91 1015.4
20260507004005 46 0 0.0 0.0 0.00 0.02 0.00 91 1015.4
20260507003005 46 0 0.0 0.0 0.00 0.02 0.00 91 1015.3
20260507002004 46 0 0.0 0.0 0.00 0.02 0.00 91 1015.3
20260507001006 46 0 0.0 3.0 0.00 0.02 0.00 91 1015.4
20260507000005 46 0 0.0 1.0 0.00 0.02 0.00 90 1015.5
20260506235004 46 0 0.0 0.0 0.00 0.02 0.02 90 1015.5
20260506234006 46 0 0.0 1.0 0.00 0.02 0.02 90 1015.5
20260506231005 46 0 0.0 1.0 0.00 0.02 0.02 90 1015.3
20260506230006 46 0 0.0 0.0 0.00 0.02 0.02 90 1015.4
20260506225004 46 0 0.0 1.0 0.00 0.02 0.02 89 1015.4
20260506224005 46 0 0.0 0.0 0.00 0.02 0.02 89 1015.3
20260506223004 46 0 0.0 1.0 0.00 0.02 0.02 89 1015.2
20260506222004 47 0 0.0 3.0 0.00 0.02 0.02 89 1015.2